Vertical_Velocity
-10 6 -5 10 26 -8 27 0 -3 -19 12 22 -6 16 -5 -13 1 -19 -9 9 5 5 5 4 4 2 6 5 2 2 -1 0 0 -3 3 2 4 3 -0 -1 -0 -1 1
6 6 8 -27 34 6 15 19 7 1 14 29 52 -22 -10 -14 14 14 18 7 7 2 2 6 4 3 1 4 5 2 2 1 2 -1 -3 -2 8 8 6 6 1 1 1
3 4 -0 17 8 4 10 4 6 11 -8 -7 15 19 15 14 6 10 -32 13 6 3 4 1 13 10 5 3 6 3 2 3 1 1 -5 -6 -4 -6 3 2 -1 1 1
7 8 -1 1 -3 2 -3 2 1 1 18 2 -19 58 -6 3 5 39 14 21 21 14 12 12 16 12 1 4 12 6 2 -1 -1 -1 2 1 -4 -5 -11 0 -1 -1 -1
-3 4 -1 3 3 1 -2 3 3 -2 1 6 9 18 18 18 -20 25 10 1 11 -4 -3 6 8 23 21 11 5 2 -1 -0 -4 -0 -2 3 1 4 -4 -8 -1 -2 -2
1 5 -2 2 1 4 1 -4 2 0 2 6 8 1 2 -2 11 -18 26 3 1 3 -9 -9 12 22 21 -5 -11 -2 -9 -11 -9 -7 -0 -0 -2 1 2 -4 -2 -5 1
6 2 3 -3 2 1 1 -0 1 -0 -1 1 1 -2 5 -2 -4 1 -3 -3 -3 -2 -2 -19 -12 -11 -14 -9 -8 1 -1 -3 -3 0 3 0 3 -2 -1 -2 -0 -4 5
3 -0 -2 -3 -1 -5 -2 1 3 5 3 0 -0 -3 -2 -4 -5 0 6 3 5 3 -7 8 2 1 6 -1 -18 -2 2 4 2 1 2 0 1 1 0 -3 -2 -4 0
8 1 -3 4 -2 -3 1 2 -2 -3 1 -0 5 1 -4 -6 -2 3 2 7 4 -7 6 -6 -1 5 -1 -6 2 -2 5 -1 -1 1 -2 0 1 1 -0 -1 -2 -4 -7
-4 -6 -7 -5 -1 1 -5 -5 -4 -4 -1 2 2 3 -4 -1 3 3 4 5 -2 5 5 3 4 -2 -2 -7 1 1 -1 2 -1 1 0 2 0 -1 -1 -1 -0 -1 -2
-2 -1 2 1 -3 -7 -4 -5 -4 -6 -3 1 2 1 1 0 5 1 -1 -0 -1 6 3 1 -2 1 1 -2 4 -3 0 -0 -1 0 2 2 -2 2 -0 -1 3 -2 -2
4 1 1 0 1 3 -1 -2 -0 1 0 9 1 -3 -7 -2 -3 -1 3 1 -1 -4 -3 -3 0 -3 1 1 1 1 -0 2 -2 -0 1 1 2 -1 -1 -3 -2 2 -0
0 -1 1 1 0 -1 2 6 4 4 -3 -10 -9 -5 1 2 -1 -1 2 0 -2 0 2 -0 -1 1 2 2 -0 -0 -3 -2 -1 -1 0 0 3 -3 -1 -0 0 -2 -2
4 -1 0 1 4 1 1 -1 -2 -4 -1 1 0 -1 -5 -6 -2 -3 1 -3 2 2 3 2 -1 -2 -1 0 0 -1 0 0 -0 1 -1 -1 -2 -1 -2 -0 -0 -1 -0
1 1 -1 -3 -4 -3 -3 -4 -3 -3 -0 -0 -2 -1 0 -4 3 -0 -2 -1 2 -2 2 1 0 1 -1 -1 1 -2 -1 -1 -1 0 -1 -2 -2 -3 0 1 -1 -1 0
-1 -3 -1 -3 -5 -8 -3 -1 -3 -2 -7 -3 -3 -2 3 1 -2 -3 -2 -1 2 -1 2 2 3 2 -0 -1 -0 -0 -2 -2 -2 -3 -2 -2 0 1 1 0 -1 -1 -1
-4 -7 -6 -2 -3 -3 -5 -4 -3 -3 0 -1 -4 -1 -1 -1 1 2 1 1 -0 -3 1 2 -0 2 -1 -0 -1 -3 -4 -3 0 -2 -3 -0 -0 -0 0 -0 -2 -1 -1
1 1 1 2 -3 -2 1 3 -2 -1 -4 0 -0 1 -2 3 -1 2 -0 -1 -1 -2 1 2 -0 -1 -0 -0 -1 -0 0 -1 -2 -1 -1 -2 -1 0 -0 -0 -1 0 -1
-4 -6 -6 -6 -5 -4 -5 -1 2 1 -1 -1 -0 -2 2 3 2 4 1 0 -0 1 2 2 -0 0 0 1 -0 -1 -2 -2 -3 -3 -1 -1 -2 -1 -3 -2 -0 -0 -1
-1 0 1 1 -1 -0 -1 -0 2 3 -0 3 3 1 -1 1 2 1 2 1 1 -1 1 1 1 2 -0 -2 -2 -0 -2 -2 -2 -3 -2 -2 -1 -1 -0 -1 -1 -1 0
-2 -2 -3 -3 -4 -4 -6 -1 0 -3 0 2 5 2 -0 0 3 2 2 1 1 1 1 2 1 1 2 -1 -2 -1 -3 -2 -1 -2 -2 -1 -1 -2 -0 -0 -1 0 -1
1 -1 -2 1 -2 -3 -3 -1 -2 -1 1 -0 -0 2 3 3 3 2 2 1 1 2 3 1 -1 1 -2 1 -1 -3 -2 -2 -2 -3 -1 -1 -1 -1 -0 -0 0 -1 0
1 0 0 1 -1 -1 -5 -0 1 -1 1 3 0 -0 2 4 2 1 0 0 1 0 2 2 2 2 -2 0 -1 -2 -1 -1 -2 -2 -1 -1 -1 -0 0 0 -1 1 -0
1 -0 1 2 4 2 2 -4 -3 -2 1 1 3 2 1 1 1 1 -0 1 1 2 1 1 3 2 -2 0 1 -1 -3 -0 0 -1 -1 -0 -0 2 1 1 -1 1 1
3 3 0 1 3 2 3 2 -0 -2 -1 2 0 0 0 1 1 1 1 1 1 2 1 3 1 0 2 2 -2 -0 0 0 0 -2 1 1 1 2 1 2 1 0 0
-2 -3 -2 -1 -2 -3 -0 1 -1 -2 -1 -0 1 2 -2 -1 3 -2 -0 1 1 3 2 1 1 1 1 -1 -1 -1 1 -1 -1 0 4 -0 2 2 -0 -0 -0 1 -0
Height
3080 3085 3089 3095 3097 3101 3106 3111 3115 3118 3120 3123 3127 3128 3130 3137 3139 3142 3144 3148 3150 3151 3152 3153 3154 3155 3157 3159 3160 3162 3163 3163 3163 3163 3163 3163 3162 3161 3159 3157 3156 3153 3151
3081 3085 3088 3091 3095 3100 3103 3108 3112 3113 3114 3116 3116 3124 3128 3133 3134 3138 3139 3141 3142 3143 3145 3146 3147 3149 3151 3153 3154 3156 3157 3158 3157 3156 3156 3156 3158 3156 3155 3153 3151 3149 3146
3078 3082 3087 3089 3094 3097 3099 3103 3107 3108 3112 3115 3117 3118 3124 3129 3130 3130 3130 3134 3136 3137 3139 3141 3142 3143 3145 3147 3149 3150 3150 3151 3152 3152 3151 3149 3149 3147 3148 3147 3145 3142 3140
3076 3080 3083 3088 3093 3094 3096 3100 3104 3107 3108 3111 3113 3106 3113 3116 3119 3121 3126 3128 3129 3131 3132 3135 3136 3138 3140 3142 3142 3143 3144 3145 3145 3146 3146 3145 3143 3141 3139 3141 3139 3137 3134
3072 3076 3081 3086 3089 3091 3095 3099 3101 3104 3106 3109 3111 3110 3112 3114 3116 3116 3121 3124 3125 3125 3125 3125 3127 3130 3130 3130 3134 3138 3139 3138 3138 3139 3141 3139 3138 3136 3132 3131 3134 3131 3127
3069 3074 3078 3081 3086 3090 3093 3096 3099 3101 3103 3104 3106 3108 3110 3111 3112 3113 3115 3120 3120 3121 3120 3121 3120 3118 3119 3125 3128 3132 3132 3133 3133 3133 3134 3132 3130 3129 3126 3122 3122 3122 3121
3068 3071 3075 3078 3082 3084 3087 3091 3095 3097 3098 3100 3102 3103 3105 3107 3108 3110 3109 3110 3113 3113 3114 3114 3118 3117 3118 3119 3121 3124 3125 3125 3126 3127 3125 3124 3123 3121 3119 3116 3113 3110 3111
3067 3071 3073 3075 3079 3080 3083 3086 3087 3090 3091 3094 3096 3098 3099 3101 3103 3104 3104 3103 3104 3104 3107 3108 3110 3111 3112 3112 3114 3118 3120 3121 3120 3119 3118 3118 3116 3114 3111 3108 3106 3102 3100
3064 3067 3071 3073 3074 3076 3078 3080 3082 3085 3087 3090 3091 3092 3094 3095 3097 3097 3095 3096 3097 3099 3100 3101 3104 3106 3106 3107 3110 3112 3114 3114 3114 3113 3111 3110 3108 3106 3103 3100 3098 3095 3093
3063 3066 3069 3072 3074 3075 3075 3076 3079 3080 3081 3082 3084 3086 3087 3088 3089 3088 3088 3090 3091 3094 3095 3096 3099 3101 3102 3103 3104 3104 3107 3106 3107 3105 3104 3102 3100 3097 3095 3093 3091 3089 3086
3063 3065 3068 3069 3070 3071 3073 3074 3075 3075 3076 3077 3077 3078 3078 3079 3080 3081 3082 3084 3087 3089 3089 3091 3094 3095 3095 3097 3097 3097 3098 3099 3098 3097 3094 3093 3091 3089 3086 3084 3083 3082 3080
3059 3062 3064 3065 3067 3069 3070 3071 3070 3070 3071 3071 3071 3071 3071 3072 3073 3074 3076 3077 3080 3081 3083 3085 3087 3088 3089 3090 3090 3090 3089 3090 3089 3088 3086 3084 3081 3079 3078 3077 3075 3073 3071
3058 3060 3062 3063 3065 3067 3068 3067 3065 3065 3065 3066 3067 3067 3067 3066 3066 3067 3068 3069 3071 3073 3075 3077 3078 3080 3081 3081 3081 3081 3081 3081 3080 3078 3077 3075 3073 3071 3069 3067 3066 3065 3063
3055 3057 3059 3060 3061 3061 3062 3061 3060 3059 3058 3058 3059 3059 3059 3060 3061 3061 3061 3063 3063 3065 3066 3068 3069 3071 3072 3071 3071 3072 3072 3070 3070 3068 3067 3065 3064 3062 3060 3058 3057 3056 3054
3053 3053 3054 3054 3054 3054 3053 3052 3052 3051 3051 3050 3050 3050 3050 3051 3051 3052 3053 3054 3055 3056 3058 3059 3060 3061 3061 3062 3063 3063 3063 3062 3061 3060 3058 3057 3055 3053 3051 3050 3048 3047 3045
3049 3048 3048 3047 3046 3046 3045 3043 3042 3041 3041 3042 3042 3042 3043 3043 3043 3043 3044 3044 3045 3046 3048 3049 3051 3052 3053 3054 3054 3054 3054 3053 3053 3052 3051 3049 3047 3044 3042 3041 3039 3038 3037
3044 3043 3043 3041 3040 3038 3037 3037 3036 3035 3034 3033 3033 3033 3033 3034 3034 3035 3035 3036 3037 3039 3041 3042 3043 3044 3045 3046 3046 3046 3047 3046 3045 3044 3042 3040 3037 3036 3034 3032 3030 3029 3029
3037 3036 3035 3034 3033 3032 3031 3030 3029 3028 3027 3026 3026 3025 3024 3025 3025 3026 3027 3028 3030 3031 3033 3035 3036 3037 3037 3038 3039 3039 3039 3039 3037 3035 3033 3031 3029 3027 3026 3024 3023 3022 3022
3031 3030 3029 3028 3027 3025 3023 3023 3023 3020 3020 3018 3018 3017 3016 3016 3016 3017 3019 3021 3022 3024 3025 3027 3029 3029 3030 3031 3032 3032 3031 3030 3029 3027 3025 3023 3022 3020 3018 3017 3017 3017 3017
3025 3024 3023 3022 3020 3018 3015 3014 3014 3012 3010 3009 3009 3008 3007 3007 3008 3010 3011 3012 3014 3016 3018 3020 3021 3022 3023 3023 3023 3025 3024 3023 3022 3020 3018 3016 3014 3013 3011 3012 3012 3013 3015
3019 3017 3015 3013 3010 3008 3005 3004 3003 3002 3001 2999 2998 2998 2998 2998 2999 3000 3001 3004 3005 3007 3010 3011 3013 3014 3014 3014 3015 3016 3016 3015 3014 3012 3010 3009 3008 3007 3006 3007 3008 3010 3011
3012 3009 3007 3005 3002 2998 2995 2993 2992 2991 2991 2991 2990 2989 2989 2989 2990 2991 2993 2994 2997 2999 3001 3002 3004 3005 3005 3006 3006 3007 3008 3007 3006 3004 3003 3002 3002 3001 3002 3004 3005 3006 3007
3004 3001 2998 2997 2993 2991 2987 2984 2983 2981 2980 2981 2981 2980 2979 2980 2981 2982 2984 2985 2987 2989 2991 2992 2994 2996 2996 2997 2997 2998 2999 2998 2998 2997 2996 2995 2995 2996 2997 2999 3000 3002 3002
2996 2993 2991 2988 2986 2984 2981 2977 2975 2973 2971 2971 2971 2971 2971 2971 2972 2973 2974 2976 2978 2979 2980 2982 2984 2985 2986 2988 2988 2988 2988 2989 2989 2988 2988 2988 2989 2990 2992 2993 2996 2997 2997
2988 2985 2983 2981 2978 2976 2973 2970 2967 2965 2963 2962 2961 2961 2961 2963 2963 2964 2965 2966 2968 2969 2970 2972 2974 2976 2978 2978 2977 2978 2978 2978 2979 2979 2980 2981 2983 2984 2986 2988 2990 2991 2992
2980 2977 2974 2971 2968 2966 2964 2962 2959 2956 2953 2953 2952 2952 2953 2954 2954 2954 2956 2957 2959 2960 2961 2963 2965 2966 2968 2967 2966 2967 2967 2967 2968 2970 2973 2974 2977 2978 2980 2983 2985 2986 2987